This demonstration page uses our WeatherBlox Daily Observations layout. Learn more.

Left ArrowRight Arrow

Hourly Observations for March 21, 2021

Temp ( °F °C ) Dew Point ( °F °C ) Humidity (%) Winds ( mph kmh ) Pressure ( in mb ) Visibility ( mi km ) Precip ( " mm )
12:51 am 00:51 Clear 63 17.2 30 -1.1 29 29 WSW 5 7 29.85 1011 10 16.0934 0 0
1:51 am 01:51 Clear 63 17.2 33 0.6 33 33 NW 8 13 29.84 1011 10 16.0934 0 0
2:51 am 02:51 Clear 61 16.1 32 0 34 34 W 8 13 29.84 1010 10 16.0934 0 0
3:51 am 03:51 Clear 61 16.1 33 0.6 35 35 W 3 6 29.82 1010 10 16.0934 0 0
4:51 am 04:51 Clear 62 16.7 34 1.1 35 35 W 7 11 29.82 1010 10 16.0934 0 0
5:51 am 05:51 Clear 58 14.4 34 1.1 41 41 SSW 6 9 29.84 1010 10 16.0934 0 0
6:51 am 06:51 Sunny 54 12.2 33 0.6 45 45 Calm 29.86 1011 10 16.0934 0 0
7:51 am 07:51 Sunny 59 15 34 1.1 39 39 S 3 6 29.88 1012 10 16.0934 0 0
8:51 am 08:51 Sunny 65 18.3 34 1.1 32 32 Calm 29.88 1012 10 16.0934 0 0
9:51 am 09:51 Sunny 68 20 35 1.7 30 30 undefined N/A 29.88 1012 10 16.0934 0 0
10:51 am 10:51 Sunny 72 22.2 36 2.2 27 27 W 8 13 29.85 1011 10 16.0934 0 0
11:51 am 11:51 Sunny 75 23.9 34 1.1 22 22 NNW 7 11 29.82 1010 10 16.0934 0 0
12:51 pm 12:51 Mostly Sunny 76 24.4 30 -1.1 18 18 VRB 6 9 29.78 1008 10 16.0934 0 0
1:51 pm 13:51 Sunny 79 26.1 21 -6.1 11 11 WNW 20 31 29.73 1007 10 16.0934 0 0
2:51 pm 14:51 Sunny 80 26.7 18 -7.8 10 10 NW 22 35 29.69 1005 10 16.0934 0 0
3:51 pm 15:51 Sunny 79 26.1 19 -7.2 10 10 WNW 17 28 29.67 1005 10 16.0934 0 0
4:51 pm 16:51 Sunny 77 25 18 -7.8 11 11 W 21 33 29.66 1004 10 16.0934 0 0
5:51 pm 17:51 Sunny 74 23.3 10 -12.2 8 8 WNW 20 31 29.68 1005 10 16.0934 0 0
6:51 pm 18:51 Clear 69 20.6 3 -16.1 7 7 WNW 18 30 29.69 1005 10 16.0934 0 0
7:51 pm 19:51 Partly Cloudy 66 18.9 4 -15.6 8 8 NW 18 30 29.7 1006 10 16.0934 0 0
8:51 pm 20:51 Clear 61 16.1 3 -16.1 10 10 WNW 13 20 29.72 1006 10 16.0934 0 0
9:51 pm 21:51 Clear 59 15 3 -16.1 10 10 WNW 14 22 29.71 1006 10 16.0934 0 0
10:51 pm 22:51 Clear 58 14.4 4 -15.6 11 11 NW 18 30 29.7 1006 10 16.0934 0 0
11:51 pm 23:51 Clear 56 13.3 6 -14.4 13 13 NW 12 19 29.71 1006 10 16.0934 0 0

Powered by AerisWeather